Change the Weather History Date:

Saturday, October 1, 2011

  Actual Average Record
Temperature  
Mean Temperature 54 °F -  
Max Temperature 63 °F 67 °F 93 °F (2013)
Min Temperature 45 °F 50 °F 44 °F (2008)
Degree Days  
Heating Degree Days 11    
Growing Degree Days 4 (Base 50)    
Moisture  
Dew Point 50 °F    
Average Humidity 82    
Maximum Humidity 94    
Minimum Humidity 66    
Precipitation  
Precipitation 0.00 in - - ()
Sea Level Pressure  
Sea Level Pressure 30.02 in    
Wind  
Wind Speed 6 mph ()    
Max Wind Speed 15 mph    
Max Gust Speed -    
Visibility 7.6 miles    
Events      
Averages and records for this station are not official NWS values.
T = Trace of Precipitation, MM = Missing Value Source: Averaged Metar Reports

Daily Weather History Graph

Daily Weather History Graph

Search for Another Location

Airport or City:

Trip Planner

Search our weather history database for the weather conditions in past years. The results will help you decide how hot, cold, wet, or windy it might be!

Date:

Astronomy

Oct. 01, 2011 Rise Set
Actual Time 6:08 AM SAST 6:32 PM SAST
Civil Twilight 5:43 AM SAST 6:58 PM SAST
Nautical Twilight 5:13 AM SAST 7:27 PM SAST
Astronomical Twilight 4:43 AM SAST 7:57 PM SAST
Moon 8:44 AM SAST (10/1) 11:25 PM SAST (10/1)
Length of Visible Light 13h 14m
Length of Day
12h 24m
Waxing Crescent, 21% of the Moon is Illuminated
Oct 1
Waxing Crescent
Oct 4
First Quarter
Oct 12
Full
Oct 20
Last Quarter
Oct 26
New

Hourly Weather History & Observations

Time (SAST) Temp. Windchill Dew Point Humidity Pressure Visibility Wind Dir Wind Speed Gust Speed Precip Events Conditions
12:00 AM 48.2 °F - 44.6 °F 87% 30.09 in - NW 3.5 mph - N/A   Clear
1:00 AM 50.0 °F - 46.4 °F 87% 30.06 in - ENE 3.5 mph - N/A   Clear
2:00 AM 50 °F - 46 °F 82% 30.05 in 12 mi ENE 5.8 mph - -  
2:00 AM 50.0 °F - 46.4 °F 87% 30.04 in - Variable 5.8 mph - N/A   Clear
3:00 AM 50.0 °F - 46.4 °F 87% 30.01 in - ESE 4.6 mph - N/A   Clear
4:00 AM 46.4 °F 44.3 °F 44.6 °F 93% 30.01 in - NW 4.6 mph - N/A   Clear
5:00 AM 49 °F - 46 °F 84% 30.01 in 12 mi NW 3.5 mph - -   Mostly Cloudy
5:00 AM 48.2 °F - 46.4 °F 93% 29.98 in 6.2 mi NW 4.6 mph - N/A   Mostly Cloudy
6:00 AM 48.2 °F - 46.4 °F 93% 29.98 in 6.2 mi NW 3.5 mph - N/A   Mostly Cloudy
7:00 AM 50.0 °F - 48.2 °F 94% 30.01 in 6.2 mi WNW 4.6 mph - N/A   Mostly Cloudy
8:00 AM 52 °F - 49 °F 88% 30.04 in 12 mi West 6.9 mph - -   Mostly Cloudy
8:00 AM 51.8 °F - 50.0 °F 94% 30.01 in 6.2 mi West 5.8 mph - N/A   Overcast
9:00 AM 55.4 °F - 51.8 °F 88% 30.01 in 6.2 mi NW 4.6 mph - N/A   Mostly Cloudy
9:31 AM 59.0 °F - 51.8 °F 77% 30.01 in 6.2 mi NNW 5.8 mph - N/A   Scattered Clouds
10:00 AM 60.8 °F - 51.8 °F 72% 30.01 in 6.2 mi Variable 3.5 mph - N/A   Partly Cloudy
11:00 AM 61 °F - 53 °F 66% 30.03 in 12 mi SW 11.5 mph - -   Mostly Cloudy
11:00 AM 62.6 °F - 53.6 °F 72% 30.01 in 6.2 mi SW 11.5 mph - N/A   Mostly Cloudy
12:00 PM 62.6 °F - 53.6 °F 72% 30.01 in 6.2 mi SW 15.0 mph - N/A   Mostly Cloudy
1:00 PM 60.8 °F - 53.6 °F 77% 30.01 in 6.2 mi SW 12.7 mph - N/A   Mostly Cloudy
2:00 PM 61 °F - 54 °F 70% 30.00 in 12 mi SSW 8.1 mph - -   Mostly Cloudy
2:00 PM 60.8 °F - 53.6 °F 77% 30.01 in 6.2 mi SSW 8.1 mph - N/A   Mostly Cloudy
3:00 PM 60.8 °F - 53.6 °F 77% 30.01 in 6.2 mi SW 11.5 mph - N/A   Mostly Cloudy
3:33 PM 59.0 °F - 53.6 °F 82% 30.01 in 6.2 mi SW 12.7 mph - N/A   Mostly Cloudy
4:00 PM 59.0 °F - 53.6 °F 82% 30.04 in 6.2 mi SW 12.7 mph - N/A   Mostly Cloudy
4:19 PM 59.0 °F - 51.8 °F 77% 30.01 in 6.2 mi SSW 10.4 mph - N/A   Mostly Cloudy
5:00 PM 59 °F - 52 °F 71% 30.02 in 12 mi SSW 10.4 mph - -   Mostly Cloudy
5:00 PM 59.0 °F - 51.8 °F 77% 30.01 in 6.2 mi SSW 10.4 mph - N/A   Mostly Cloudy
6:00 PM 59.0 °F - 51.8 °F 77% 30.01 in 6.2 mi SSW 9.2 mph - N/A   Mostly Cloudy
7:00 PM 57.2 °F - 50.0 °F 77% 30.04 in 6.2 mi SW 9.2 mph - N/A   Mostly Cloudy
8:00 PM 55 °F - 51 °F 83% 30.06 in 12 mi NNW 3.5 mph - -   Mostly Cloudy
8:00 PM 55.4 °F - 51.8 °F 88% 30.06 in 6.2 mi NNW 3.5 mph - N/A   Mostly Cloudy
9:00 PM 55.4 °F - 51.8 °F 88% 30.06 in 6.2 mi NW 6.9 mph - N/A   Overcast
10:00 PM 55.4 °F - 50.0 °F 82% 30.06 in 6.2 mi WNW 6.9 mph - N/A   Mostly Cloudy
11:00 PM 57.2 °F - 50.0 °F 77% 30.06 in 6.2 mi NW 6.9 mph - N/A   Overcast